Terminal Aerodrome Forecast
Issued by NWS

Home | Current Version | Previous Version | Text Only | Print | Product List | Glossary On
Versions: 1 2 3 4 5 6 7 8 9 10 11 12 13 14 15 16 17 18 19 20 21 22 23 24 25 26 27 28 29 30 31 32 33 34 35 36 37 38 39 40 41 42 43 44 45 46 47 48 49 50
000
FTUS41 KCTP 261205 AAA
TAFLNS
TAF AMD
KLNS 261205Z 2612/2712 02005KT P6SM -RA OVC030
     FM261300 01010KT 1SM -SN OVC015
     FM261500 36010KT 1/2SM SN OVC003
     FM262300 30010KT 3SM -SN OVC015
     FM270400 26003KT 6SM BR VCSH BKN015 OVC150
     FM270600 31004KT P6SM SCT040=

USA.gov is the U.S. government's official web portal to all federal, state and local government web resources and services.